| time (UTC) | temp F | wind direction | speed MPH | gust MPH | rain 1hr in | rain 24hr in | rain mn in | humidity % | barometer mb |
| 20260506044014 | 69 | 149 | 7.0 | 15.0 | 0.00 | 0.00 | 0.00 | ||
| 20260506043509 | 69 | 176 | 9.0 | 12.0 | 0.00 | 0.00 | 0.00 | ||
| 20260506043004 | 68 | 195 | 10.0 | 12.0 | 0.00 | 0.00 | 0.00 | ||
| 20260506042459 | 69 | 173 | 9.0 | 10.0 | 0.00 | 0.00 | 0.00 | ||
| 20260506041955 | 69 | 131 | 5.0 | 14.0 | 0.00 | 0.00 | 0.00 | ||
| 20260506041450 | 69 | 173 | 8.0 | 11.0 | 0.00 | 0.00 | 0.00 | ||
| 20260506040942 | 69 | 190 | 5.0 | 9.0 | 0.00 | 0.00 | 0.00 | ||
| 20260506040438 | 68 | 134 | 5.0 | 10.0 | 0.00 | 0.00 | 0.00 | ||
| 20260506035933 | 69 | 143 | 7.0 | 11.0 | 0.00 | 0.00 | 0.00 | ||
| 20260506035428 | 69 | 156 | 4.0 | 12.0 | 0.00 | 0.00 | 0.00 | ||
| 20260506034924 | 69 | 177 | 4.0 | 16.0 | 0.00 | 0.00 | 0.00 | ||
| 20260506034419 | 69 | 159 | 9.0 | 10.0 | 0.00 | 0.00 | 0.00 | ||
| 20260506033912 | 69 | 141 | 8.0 | 14.0 | 0.00 | 0.00 | 0.00 | ||
| 20260506033405 | 69 | 138 | 9.0 | 11.0 | 0.00 | 0.00 | 0.00 | ||
| 20260506032900 | 69 | 179 | 7.0 | 11.0 | 0.00 | 0.00 | 0.00 | ||
| 20260506032356 | 69 | 132 | 6.0 | 9.0 | 0.00 | 0.00 | 0.00 | ||
| 20260506031851 | 69 | 132 | 6.0 | 9.0 | 0.00 | 0.00 | 0.00 | ||
| 20260506031346 | 69 | 183 | 8.0 | 10.0 | 0.00 | 0.00 | 0.00 | ||
| 20260506030839 | 69 | 143 | 5.0 | 12.0 | 0.00 | 0.00 | 0.00 | ||
| 20260506030334 | 70 | 148 | 9.0 | 10.0 | 0.00 | 0.00 | 0.00 | ||
| 20260506025829 | 69 | 183 | 6.0 | 10.0 | 0.00 | 0.00 | 0.00 | ||
| 20260506025325 | 69 | 179 | 10.0 | 10.0 | 0.00 | 0.00 | 0.00 | ||
| 20260506024820 | 70 | 172 | 5.0 | 9.0 | 0.00 | 0.00 | 0.00 | ||
| 20260506024315 | 69 | 148 | 4.0 | 12.0 | 0.00 | 0.00 | 0.00 | ||
| 20260506023808 | 69 | 179 | 9.0 | 11.0 | 0.00 | 0.00 | 0.00 | ||
| 20260506023303 | 70 | 174 | 7.0 | 11.0 | 0.00 | 0.00 | 0.00 | ||
| 20260506022759 | 69 | 159 | 6.0 | 12.0 | 0.00 | 0.00 | 0.00 | ||
| 20260506022254 | 70 | 155 | 4.0 | 11.0 | 0.00 | 0.00 | 0.00 | ||
| 20260506021749 | 70 | 183 | 4.0 | 9.0 | 0.00 | 0.00 | 0.00 | ||
| 20260506021245 | 71 | 163 | 7.0 | 11.0 | 0.00 | 0.00 | 0.00 | ||
| 20260506020737 | 70 | 170 | 8.0 | 8.0 | 0.00 | 0.00 | 0.00 | ||
| 20260506020232 | 71 | 121 | 4.0 | 9.0 | 0.00 | 0.00 | 0.00 | ||
| 20260506015728 | 71 | 162 | 3.0 | 8.0 | 0.00 | 0.00 | 0.00 | ||
| 20260506015223 | 70 | 143 | 5.0 | 10.0 | 0.00 | 0.00 | 0.00 | ||
| 20260506014214 | 72 | 167 | 8.0 | 11.0 | 0.00 | 0.00 | 0.00 | ||
| 20260506013706 | 72 | 143 | 11.0 | 8.0 | 0.00 | 0.00 | 0.00 | ||
| 20260506013202 | 72 | 141 | 6.0 | 11.0 | 0.00 | 0.00 | 0.00 | ||
| 20260506012657 | 72 | 153 | 5.0 | 10.0 | 0.00 | 0.00 | 0.00 | ||
| 20260506012152 | 73 | 155 | 7.0 | 9.0 | 0.00 | 0.00 | 0.00 | ||
| 20260506011648 | 73 | 143 | 7.0 | 9.0 | 0.00 | 0.00 | 0.00 | ||
| 20260506011143 | 73 | 149 | 7.0 | 12.0 | 0.00 | 0.00 | 0.00 | ||
| 20260506010634 | 73 | 153 | 7.0 | 12.0 | 0.00 | 0.00 | 0.00 | ||
| 20260506010130 | 73 | 167 | 4.0 | 10.0 | 0.00 | 0.00 | 0.00 | ||
| 20260506005625 | 74 | 193 | 6.0 | 13.0 | 0.00 | 0.00 | 0.00 | ||
| 20260506005120 | 75 | 181 | 7.0 | 13.0 | 0.00 | 0.00 | 0.00 | ||
| 20260506004616 | 75 | 160 | 8.0 | 12.0 | 0.00 | 0.00 | 0.00 | ||
| 20260506004111 | 74 | 122 | 6.0 | 11.0 | 0.00 | 0.00 | 0.00 | ||
| 20260506003603 | 74 | 187 | 9.0 | 14.0 | 0.00 | 0.00 | 0.00 | ||
| 20260506003059 | 76 | 193 | 10.0 | 13.0 | 0.00 | 0.00 | 0.00 | ||
| 20260506002554 | 75 | 172 | 7.0 | 14.0 | 0.00 | 0.00 | 0.00 | ||
| 20260506002049 | 76 | 166 | 9.0 | 15.0 | 0.00 | 0.00 | 0.00 | ||
| 20260506001545 | 76 | 170 | 7.0 | 14.0 | 0.00 | 0.00 | 0.00 | ||
| 20260506001040 | 77 | 180 | 5.0 | 16.0 | 0.00 | 0.00 | 0.00 | ||
| 20260506000533 | 76 | 174 | 11.0 | 14.0 | 0.00 | 0.00 | 0.00 | ||
| 20260506000028 | 75 | 159 | 10.0 | 17.0 | 0.00 | 0.00 | 0.00 | ||
| 20260505235523 | 76 | 163 | 14.0 | 14.0 | 0.00 | 0.00 | 0.00 | ||
| 20260505235019 | 77 | 158 | 8.0 | 16.0 | 0.00 | 0.00 | 0.00 | ||
| 20260505234514 | 77 | 156 | 7.0 | 17.0 | 0.00 | 0.00 | 0.00 | ||
| 20260505234008 | 77 | 150 | 11.0 | 14.0 | 0.00 | 0.00 | 0.00 | ||
| 20260505233501 | 78 | 177 | 10.0 | 14.0 | 0.00 | 0.00 | 0.00 | ||
| 20260505232956 | 78 | 176 | 8.0 | 17.0 | 0.00 | 0.00 | 0.00 | ||
| 20260505232452 | 77 | 169 | 7.0 | 15.0 | 0.00 | 0.00 | 0.00 | ||
| 20260505231947 | 78 | 188 | 9.0 | 17.0 | 0.00 | 0.00 | 0.00 | ||
| 20260505231442 | 78 | 172 | 17.0 | 18.0 | 0.00 | 0.00 | 0.00 | ||
| 20260505230938 | 79 | 153 | 6.0 | 19.0 | 0.00 | 0.00 | 0.00 | ||
| 20260505230430 | 78 | 174 | 13.0 | 25.0 | 0.00 | 0.00 | 0.00 | ||
| 20260505225926 | 79 | 173 | 11.0 | 21.0 | 0.00 | 0.00 | 0.00 | ||
| 20260505225421 | 80 | 127 | 10.0 | 15.0 | 0.00 | 0.00 | 0.00 | ||
| 20260505224916 | 82 | 127 | 9.0 | 16.0 | 0.00 | 0.00 | 0.00 | ||
| 20260505224412 | 80 | 159 | 8.0 | 16.0 | 0.00 | 0.00 | 0.00 | ||
| 20260505223907 | 80 | 153 | 10.0 | 16.0 | 0.00 | 0.00 | 0.00 | ||
| 20260505223400 | 80 | 198 | 13.0 | 19.0 | 0.00 | 0.00 | 0.00 | ||
| 20260505222855 | 79 | 115 | 13.0 | 20.0 | 0.00 | 0.00 | 0.00 | ||
| 20260505222350 | 80 | 165 | 14.0 | 15.0 | 0.00 | 0.00 | 0.00 | ||
| 20260505221846 | 80 | 160 | 9.0 | 15.0 | 0.00 | 0.00 | 0.00 | ||
| 20260505221341 | 80 | 233 | 9.0 | 17.0 | 0.00 | 0.00 | 0.00 | ||
| 20260505220837 | 80 | 221 | 5.0 | 21.0 | 0.00 | 0.00 | 0.00 | ||
| 20260505220329 | 80 | 167 | 15.0 | 17.0 | 0.00 | 0.00 | 0.00 | ||
| 20260505215824 | 81 | 167 | 7.0 | 19.0 | 0.00 | 0.00 | 0.00 | ||
| 20260505215320 | 83 | 167 | 6.0 | 16.0 | 0.00 | 0.00 | 0.00 | ||
| 20260505214815 | 82 | 208 | 7.0 | 15.0 | 0.00 | 0.00 | 0.00 | ||
| 20260505214310 | 80 | 211 | 8.0 | 17.0 | 0.00 | 0.00 | 0.00 | ||
| 20260505213806 | 80 | 136 | 13.0 | 16.0 | 0.00 | 0.00 | 0.00 | ||
| 20260505213258 | 81 | 186 | 8.0 | 18.0 | 0.00 | 0.00 | 0.00 | ||
| 20260505212754 | 80 | 173 | 12.0 | 22.0 | 0.00 | 0.00 | 0.00 | ||
| 20260505212249 | 80 | 150 | 13.0 | 28.0 | 0.00 | 0.00 | 0.00 | ||
| 20260505211744 | 80 | 214 | 9.0 | 24.0 | 0.00 | 0.00 | 0.00 | ||
| 20260505211240 | 80 | 165 | 15.0 | 24.0 | 0.00 | 0.00 | 0.00 | ||
| 20260505210735 | 82 | 156 | 11.0 | 24.0 | 0.00 | 0.00 | 0.00 | ||
| 20260505210227 | 84 | 184 | 12.0 | 26.0 | 0.00 | 0.00 | 0.00 | ||
| 20260505205723 | 82 | 235 | 7.0 | 21.0 | 0.00 | 0.00 | 0.00 | ||
| 20260505205218 | 83 | 177 | 15.0 | 18.0 | 0.00 | 0.00 | 0.00 | ||
| 20260505204713 | 84 | 146 | 13.0 | 22.0 | 0.00 | 0.00 | 0.00 | ||
| 20260505204208 | 84 | 218 | 16.0 | 27.0 | 0.00 | 0.00 | 0.00 | ||
| 20260505203703 | 84 | 174 | 10.0 | 20.0 | 0.00 | 0.00 | 0.00 | ||
| 20260505203156 | 83 | 186 | 12.0 | 21.0 | 0.00 | 0.00 | 0.00 | ||
| 20260505202651 | 83 | 181 | 9.0 | 24.0 | 0.00 | 0.00 | 0.00 | ||
| 20260505202146 | 85 | 194 | 13.0 | 25.0 | 0.00 | 0.00 | 0.00 | ||
| 20260505201642 | 84 | 190 | 15.0 | 27.0 | 0.00 | 0.00 | 0.00 | ||
| 20260505201136 | 82 | 197 | 15.0 | 21.0 | 0.00 | 0.00 | 0.00 | ||
| 20260505200631 | 83 | 169 | 9.0 | 25.0 | 0.00 | 0.00 | 0.00 | ||
| 20260505200124 | 85 | 218 | 11.0 | 24.0 | 0.00 | 0.00 | 0.00 | ||
| 20260505195114 | 84 | 162 | 22.0 | 24.0 | 0.00 | 0.00 | 0.00 | ||
| 20260505194610 | 85 | 146 | 22.0 | 19.0 | 0.00 | 0.00 | 0.00 | ||
| 20260505194104 | 85 | 120 | 15.0 | 19.0 | 0.00 | 0.00 | 0.00 | ||
| 20260505193600 | 85 | 124 | 8.0 | 28.0 | 0.00 | 0.00 | 0.00 | ||
| 20260505193052 | 83 | 131 | 13.0 | 19.0 | 0.00 | 0.00 | 0.00 | ||
| 20260505192547 | 85 | 165 | 14.0 | 25.0 | 0.00 | 0.00 | 0.00 | ||
| 20260505192041 | 83 | 129 | 8.0 | 23.0 | 0.00 | 0.00 | 0.00 | ||
| 20260505191536 | 85 | 174 | 14.0 | 21.0 | 0.00 | 0.00 | 0.00 | ||
| 20260505191032 | 84 | 191 | 13.0 | 19.0 | 0.00 | 0.00 | 0.00 | ||
| 20260505190526 | 84 | 131 | 12.0 | 19.0 | 0.00 | 0.00 | 0.00 | ||
| 20260505190018 | 84 | 210 | 11.0 | 20.0 | 0.00 | 0.00 | 0.00 | ||
| 20260505185514 | 83 | 176 | 14.0 | 23.0 | 0.00 | 0.00 | 0.00 | ||
| 20260505185009 | 83 | 167 | 10.0 | 20.0 | 0.00 | 0.00 | 0.00 | ||
| 20260505184503 | 82 | 163 | 11.0 | 27.0 | 0.00 | 0.00 | 0.00 | ||
| 20260505183959 | 84 | 163 | 9.0 | 22.0 | 0.00 | 0.00 | 0.00 | ||
| 20260505183454 | 83 | 174 | 14.0 | 22.0 | 0.00 | 0.00 | 0.00 | ||
| 20260505182946 | 84 | 124 | 10.0 | 20.0 | 0.00 | 0.00 | 0.00 | ||
| 20260505182442 | 83 | 159 | 8.0 | 16.0 | 0.00 | 0.00 | 0.00 | ||
| 20260505181937 | 83 | 208 | 13.0 | 15.0 | 0.00 | 0.00 | 0.00 | ||
| 20260505181432 | 82 | 198 | 8.0 | 20.0 | 0.00 | 0.00 | 0.00 | ||
| 20260505180927 | 83 | 183 | 18.0 | 16.0 | 0.00 | 0.00 | 0.00 | ||
| 20260505180422 | 82 | 163 | 9.0 | 18.0 | 0.00 | 0.00 | 0.00 | ||
| 20260505175915 | 82 | 190 | 9.0 | 16.0 | 0.00 | 0.00 | 0.00 | ||
| 20260505175410 | 83 | 231 | 12.0 | 20.0 | 0.00 | 0.00 | 0.00 | ||
| 20260505174906 | 83 | 190 | 13.0 | 20.0 | 0.00 | 0.00 | 0.00 | ||
| 20260505174401 | 83 | 239 | 8.0 | 16.0 | 0.00 | 0.00 | 0.00 | ||
| 20260505173856 | 82 | 167 | 10.0 | 19.0 | 0.00 | 0.00 | 0.00 | ||
| 20260505173352 | 82 | 195 | 9.0 | 20.0 | 0.00 | 0.00 | 0.00 | ||
| 20260505172844 | 82 | 148 | 12.0 | 17.0 | 0.00 | 0.00 | 0.00 | ||
| 20260505172340 | 83 | 191 | 7.0 | 19.0 | 0.00 | 0.00 | 0.00 | ||
| 20260505171835 | 82 | 146 | 7.0 | 18.0 | 0.00 | 0.00 | 0.00 | ||
| 20260505171331 | 83 | 219 | 5.0 | 21.0 | 0.00 | 0.00 | 0.00 | ||
| 20260505170826 | 81 | 208 | 8.0 | 14.0 | 0.00 | 0.00 | 0.00 | ||
| 20260505170321 | 82 | 193 | 10.0 | 21.0 | 0.00 | 0.00 | 0.00 | ||
| 20260505165814 | 82 | 183 | 11.0 | 17.0 | 0.00 | 0.00 | 0.00 | ||
| 20260505165309 | 81 | 197 | 6.0 | 20.0 | 0.00 | 0.00 | 0.00 | ||
| 20260505164804 | 81 | 197 | 17.0 | 17.0 | 0.00 | 0.00 | 0.00 | ||
| 20260505164259 | 81 | 239 | 12.0 | 15.0 | 0.00 | 0.00 | 0.00 | ||
| 20260505163755 | 82 | 190 | 10.0 | 19.0 | 0.00 | 0.00 | 0.00 | ||
| 20260505163250 | 83 | 228 | 8.0 | 17.0 | 0.00 | 0.00 | 0.00 | ||
| 20260505162743 | 81 | 219 | 9.0 | 19.0 | 0.00 | 0.00 | 0.00 | ||
| 20260505162237 | 81 | 212 | 17.0 | 13.0 | 0.00 | 0.00 | 0.00 | ||
| 20260505161731 | 82 | 193 | 7.0 | 16.0 | 0.00 | 0.00 | 0.00 | ||
| 20260505160721 | 81 | 236 | 7.0 | 17.0 | 0.00 | 0.00 | 0.00 | ||
| 20260505160216 | 80 | 253 | 9.0 | 18.0 | 0.00 | 0.00 | 0.00 | ||
| 20260505153146 | 80 | 163 | 14.0 | 19.0 | 0.00 | 0.00 | 0.00 | ||
| 20260505152637 | 80 | 212 | 12.0 | 16.0 | 0.00 | 0.00 | 0.00 | ||
| 20260505152133 | 80 | 269 | 14.0 | 18.0 | 0.00 | 0.00 | 0.00 | ||
| 20260505151628 | 79 | 181 | 11.0 | 18.0 | 0.00 | 0.00 | 0.00 | ||
| 20260505151124 | 79 | 217 | 8.0 | 16.0 | 0.00 | 0.00 | 0.00 | ||
| 20260505150619 | 79 | 194 | 14.0 | 17.0 | 0.00 | 0.00 | 0.00 | ||
| 20260505150114 | 79 | 186 | 15.0 | 19.0 | 0.00 | 0.00 | 0.00 | ||
| 20260505140518 | 75 | 215 | 8.0 | 12.0 | 0.00 | 0.00 | 0.00 | ||
| 20260505124858 | 62 | 136 | 4.0 | 8.0 | 0.00 | 0.00 | 0.00 | ||
| 20260505124353 | 62 | 121 | 5.0 | 8.0 | 0.00 | 0.00 | 0.00 | ||
| 20260505123847 | 61 | 191 | 6.0 | 7.0 | 0.00 | 0.00 | 0.00 | ||
| 20260505123343 | 61 | 165 | 3.0 | 7.0 | 0.00 | 0.00 | 0.00 | ||
| 20260505122838 | 61 | 134 | 5.0 | 9.0 | 0.00 | 0.00 | 0.00 | ||
| 20260505122331 | 61 | 138 | 4.0 | 6.0 | 0.00 | 0.00 | 0.00 | ||
| 20260505121826 | 60 | 207 | 3.0 | 9.0 | 0.00 | 0.00 | 0.00 | ||
| 20260505121321 | 60 | 139 | 4.0 | 7.0 | 0.00 | 0.00 | 0.00 | ||
| 20260505120817 | 60 | 201 | 3.0 | 6.0 | 0.00 | 0.00 | 0.00 | ||
| 20260505120312 | 59 | 160 | 3.0 | 7.0 | 0.00 | 0.00 | 0.00 | ||
| 20260505115807 | 58 | 195 | 3.0 | 7.0 | 0.00 | 0.00 | 0.00 | ||
| 20260505115300 | 59 | 156 | 3.0 | 6.0 | 0.00 | 0.00 | 0.00 | ||
| 20260505114250 | 58 | 176 | 2.0 | 5.0 | 0.00 | 0.00 | 0.00 | ||
| 20260505113746 | 56 | 173 | 3.0 | 6.0 | 0.00 | 0.00 | 0.00 | ||
| 20260505113240 | 56 | 201 | 4.0 | 7.0 | 0.00 | 0.00 | 0.00 | ||
| 20260505112735 | 56 | 128 | 1.0 | 4.0 | 0.00 | 0.00 | 0.00 | ||
| 20260505112227 | 56 | 163 | 0.0 | 3.0 | 0.00 | 0.00 | 0.00 | ||
| 20260505111723 | 54 | 135 | 0.0 | 0.0 | 0.00 | 0.00 | 0.00 | ||
| 20260505111218 | 52 | 135 | 0.0 | 0.0 | 0.00 | 0.00 | 0.00 | ||
| 20260505110713 | 54 | 135 | 0.0 | 0.0 | 0.00 | 0.00 | 0.00 | ||
| 20260505110209 | 53 | 135 | 0.0 | 0.0 | 0.00 | 0.00 | 0.00 | ||
| 20260505102124 | 53 | 135 | 0.0 | 0.0 | 0.00 | 0.00 | 0.00 | ||
| 20260505101619 | 51 | 135 | 0.0 | 0.0 | 0.00 | 0.00 | 0.00 | ||
| 20260505101114 | 52 | 135 | 0.0 | 0.0 | 0.00 | 0.00 | 0.00 | ||
| 20260505100609 | 51 | 135 | 0.0 | 0.0 | 0.00 | 0.00 | 0.00 | ||
| 20260505100105 | 52 | 135 | 0.0 | 0.0 | 0.00 | 0.00 | 0.00 | ||
| 20260505095600 | 52 | 135 | 0.0 | 0.0 | 0.00 | 0.00 | 0.00 | ||
| 20260505095052 | 52 | 135 | 0.0 | 0.0 | 0.00 | 0.00 | 0.00 | ||
| 20260505094546 | 52 | 135 | 0.0 | 0.0 | 0.00 | 0.00 | 0.00 | ||
| 20260505094041 | 53 | 135 | 0.0 | 0.0 | 0.00 | 0.00 | 0.00 | ||
| 20260505093536 | 52 | 135 | 0.0 | 0.0 | 0.00 | 0.00 | 0.00 | ||
| 20260505093032 | 52 | 135 | 0.0 | 0.0 | 0.00 | 0.00 | 0.00 | ||
| 20260505092527 | 52 | 135 | 0.0 | 0.0 | 0.00 | 0.00 | 0.00 | ||
| 20260505092019 | 51 | 135 | 0.0 | 0.0 | 0.00 | 0.00 | 0.00 | ||
| 20260505091514 | 52 | 135 | 0.0 | 0.0 | 0.00 | 0.00 | 0.00 | ||
| 20260505091009 | 52 | 135 | 0.0 | 0.0 | 0.00 | 0.00 | 0.00 | ||
| 20260505090504 | 53 | 135 | 0.0 | 2.0 | 0.00 | 0.00 | 0.00 | ||
| 20260505085454 | 53 | 139 | 0.0 | 0.0 | 0.00 | 0.00 | 0.00 | ||
| 20260505084947 | 53 | 139 | 0.0 | 0.0 | 0.00 | 0.00 | 0.00 | ||
| 20260505084442 | 53 | 139 | 0.0 | 0.0 | 0.00 | 0.00 | 0.00 | ||
| 20260505083937 | 52 | 139 | 0.0 | 0.0 | 0.00 | 0.00 | 0.00 | ||
| 20260505083432 | 51 | 139 | 0.0 | 0.0 | 0.00 | 0.00 | 0.00 | ||
| 20260505082927 | 51 | 139 | 0.0 | 0.0 | 0.00 | 0.00 | 0.00 | ||
| 20260505082423 | 51 | 139 | 0.0 | 0.0 | 0.00 | 0.00 | 0.00 | ||
| 20260505081915 | 52 | 139 | 0.0 | 0.0 | 0.00 | 0.00 | 0.00 | ||
| 20260505081410 | 50 | 139 | 0.0 | 0.0 | 0.00 | 0.00 | 0.00 | ||
| 20260505080400 | 50 | 139 | 0.0 | 0.0 | 0.00 | 0.00 | 0.00 | ||
| 20260505075855 | 50 | 139 | 0.0 | 0.0 | 0.00 | 0.00 | 0.00 | ||
| 20260505075351 | 50 | 139 | 0.0 | 0.0 | 0.00 | 0.00 | 0.00 | ||
| 20260505074843 | 51 | 139 | 0.0 | 0.0 | 0.00 | 0.00 | 0.00 | ||
| 20260505074338 | 50 | 139 | 0.0 | 0.0 | 0.00 | 0.00 | 0.00 | ||
| 20260505073833 | 51 | 139 | 0.0 | 0.0 | 0.00 | 0.00 | 0.00 | ||
| 20260505073328 | 51 | 139 | 0.0 | 0.0 | 0.00 | 0.00 | 0.00 | ||
| 20260505072823 | 51 | 139 | 0.0 | 0.0 | 0.00 | 0.00 | 0.00 | ||
| 20260505072319 | 52 | 139 | 0.0 | 0.0 | 0.00 | 0.00 | 0.00 | ||
| 20260505071811 | 52 | 139 | 0.0 | 0.0 | 0.00 | 0.00 | 0.00 | ||
| 20260505071306 | 52 | 139 | 0.0 | 0.0 | 0.00 | 0.00 | 0.00 | ||
| 20260505070801 | 53 | 139 | 0.0 | 0.0 | 0.00 | 0.00 | 0.00 | ||
| 20260505070257 | 53 | 139 | 0.0 | 0.0 | 0.00 | 0.00 | 0.00 | ||
| 20260505065752 | 54 | 139 | 0.0 | 0.0 | 0.00 | 0.00 | 0.00 | ||
| 20260505065247 | 52 | 139 | 0.0 | 0.0 | 0.00 | 0.00 | 0.00 | ||
| 20260505064739 | 51 | 139 | 0.0 | 0.0 | 0.00 | 0.00 | 0.00 | ||
| 20260505064235 | 51 | 139 | 0.0 | 2.0 | 0.00 | 0.00 | 0.00 | ||
| 20260505063730 | 52 | 179 | 2.0 | 0.0 | 0.00 | 0.00 | 0.00 | ||
| 20260505063225 | 52 | 190 | 0.0 | 0.0 | 0.00 | 0.00 | 0.00 | ||
| 20260505062720 | 53 | 190 | 0.0 | 0.0 | 0.00 | 0.00 | 0.00 | ||
| 20260505062216 | 53 | 190 | 0.0 | 0.0 | 0.00 | 0.00 | 0.00 | ||
| 20260505061203 | 55 | 190 | 0.0 | 1.0 | 0.00 | 0.00 | 0.00 | ||
| 20260505060658 | 55 | 181 | 0.0 | 0.0 | 0.00 | 0.00 | 0.00 | ||
| 20260505060154 | 55 | 181 | 0.0 | 1.0 | 0.00 | 0.00 | 0.00 | ||
| 20260505055649 | 55 | 194 | 1.0 | 2.0 | 0.00 | 0.00 | 0.00 | ||
| 20260505055144 | 55 | 176 | 0.0 | 0.0 | 0.00 | 0.00 | 0.00 | ||
| 20260505054637 | 55 | 176 | 0.0 | 2.0 | 0.00 | 0.00 | 0.00 | ||
| 20260505054132 | 57 | 179 | 1.0 | 3.0 | 0.00 | 0.00 | 0.00 | ||
| 20260505053626 | 57 | 233 | 2.0 | 3.0 | 0.00 | 0.00 | 0.00 | ||
| 20260505053121 | 59 | 226 | 2.0 | 3.0 | 0.00 | 0.00 | 0.00 | ||
| 20260505052617 | 58 | 135 | 2.0 | 0.0 | 0.00 | 0.00 | 0.00 | ||
| 20260505052112 | 59 | 159 | 0.0 | 0.0 | 0.00 | 0.00 | 0.00 | ||
| 20260505051604 | 58 | 159 | 0.0 | 0.0 | 0.00 | 0.00 | 0.00 | ||
| 20260505051058 | 59 | 159 | 0.0 | 4.0 | 0.00 | 0.00 | 0.00 | ||
| 20260505050554 | 60 | 159 | 0.0 | 5.0 | 0.00 | 0.00 | 0.00 |